Location: Unspecified
(0.0000°N, 0.0000°E)
Time: 20:12:20
(UTC+00:00)

INTEGRAL - Visible Passes

Search period start: 16 January 2022 00:00
Search period end: 26 January 2022 00:00
Orbit: 2069 x 147383 km, 70.8° (Epoch: 16 January)

Date Brightness Start Highest point End Pass type
(mag) Time Alt. Az. Time Alt. Az. Time Alt. Az.
16 Jan 12.5 00:56:07 10° NNE 05:50:16 20° N 09:44:07 10° NNW visible
17 Jan 13.9 02:20:24 10° NNE 07:17:55 36° N 12:00:02 10° NW visible
18 Jan 8.5 03:07:44 10° ENE 08:12:34 77° ESE 09:10:22 10° SSE visible
19 Jan 13.4 01:40:41 10° NNE 06:23:03 26° N 10:42:42 10° NNW visible
20 Jan 13.4 02:20:20 10° NE 07:26:38 42° N 12:15:42 10° NW visible
22 Jan 13.8 01:47:19 10° NNE 06:36:57 31° N 11:09:55 10° NW visible
23 Jan 12.0 02:22:18 10° NE 07:43:09 51° N 12:38:30 10° WNW visible
23 Jan 6.9 17:29:51 10° ESE 17:41:23 15° ENE 18:16:02 10° NE daylight
25 Jan 13.8 01:48:19 10° NNE 06:45:40 36° N 11:27:36 10° NW visible
